TimeEDT,TemperatureF,Dew PointF,Humidity,Sea Level PressureIn,VisibilityMPH,Wind Direction,Wind SpeedMPH,Gust SpeedMPH,PrecipitationIn,Events,Conditions,WindDirDegrees,DateUTC
12:53 AM,55.9,53.1,90,30.07,10.0,Calm,Calm,-,N/A,,Clear,0,2013-09-16 04:53:00
1:53 AM,53.1,51.1,93,30.06,10.0,Calm,Calm,-,N/A,,Clear,0,2013-09-16 05:53:00
2:53 AM,54.0,51.1,90,30.04,10.0,WSW,4.6,-,N/A,,Clear,240,2013-09-16 06:53:00
3:53 AM,54.0,53.1,97,30.04,10.0,WSW,4.6,-,N/A,,Clear,250,2013-09-16 07:53:00
4:53 AM,57.0,55.9,96,30.03,10.0,WSW,3.5,-,N/A,,Clear,240,2013-09-16 08:53:00
5:53 AM,53.1,52.0,96,30.03,10.0,SW,4.6,-,N/A,,Clear,230,2013-09-16 09:53:00
6:53 AM,57.0,55.9,96,30.04,10.0,West,3.5,-,N/A,,Clear,270,2013-09-16 10:53:00
7:53 AM,60.1,55.9,86,30.04,10.0,West,3.5,-,N/A,,Clear,260,2013-09-16 11:53:00
8:53 AM,60.1,55.9,86,30.05,10.0,WNW,5.8,-,N/A,,Mostly Cloudy,300,2013-09-16 12:53:00
9:53 AM,60.1,55.0,83,30.06,10.0,Calm,Calm,-,0.00,Rain,Light Rain,0,2013-09-16 13:53:00
10:53 AM,59.0,54.0,83,30.06,10.0,North,3.5,-,0.01,Rain,Light Rain,360,2013-09-16 14:53:00
11:53 AM,57.9,54.0,87,30.06,10.0,NNW,3.5,-,0.00,Rain,Light Rain,330,2013-09-16 15:53:00
12:53 PM,59.0,55.0,87,30.05,10.0,Calm,Calm,-,0.00,Rain,Light Rain,0,2013-09-16 16:53:00
1:53 PM,60.1,55.9,86,30.04,10.0,Calm,Calm,-,0.01,,Overcast,0,2013-09-16 17:53:00
2:53 PM,64.0,55.0,73,30.04,10.0,Variable,4.6,-,N/A,,Overcast,0,2013-09-16 18:53:00
3:53 PM,66.0,53.1,63,30.02,10.0,Variable,4.6,-,N/A,,Clear,0,2013-09-16 19:53:00
4:53 PM,64.9,54.0,68,30.03,10.0,Calm,Calm,-,N/A,,Mostly Cloudy,0,2013-09-16 20:53:00
5:53 PM,64.0,55.9,75,30.04,10.0,Calm,Calm,-,N/A,,Overcast,0,2013-09-16 21:53:00
6:53 PM,61.0,54.0,78,30.06,10.0,Calm,Calm,-,N/A,,Clear,0,2013-09-16 22:53:00
7:53 PM,57.0,53.1,87,30.09,10.0,Calm,Calm,-,N/A,,Scattered Clouds,0,2013-09-16 23:53:00
8:53 PM,55.9,52.0,87,30.12,10.0,NW,3.5,-,N/A,,Mostly Cloudy,320,2013-09-17 00:53:00
9:53 PM,55.0,46.0,72,30.15,10.0,North,5.8,-,N/A,,Scattered Clouds,350,2013-09-17 01:53:00
10:53 PM,52.0,42.1,69,30.19,10.0,NNW,5.8,-,N/A,,Clear,340,2013-09-17 02:53:00
11:53 PM,50.0,39.9,68,30.20,10.0,Calm,Calm,-,N/A,,Clear,0,2013-09-17 03:53:00